Location: York
(31.8935°S, 116.7682°E)
Time: 23:18:45
(UTC+08:00)

Explorer 7 - All Passes

Search period start: 22 June 2021 00:00
Search period end: 02 July 2021 00:00
Orbit: 484 x 677 km, 50.3° (Epoch: 21 June)

Date Brightness Start Highest point End Pass type
(mag) Time Alt. Az. Time Alt. Az. Time Alt. Az.
22 Jun - 07:00:58 10° NNW 07:04:40 52° NE 07:08:22 10° ESE daylight
22 Jun - 08:42:36 10° WSW 08:45:19 18° SSW 08:48:03 10° SSE daylight
22 Jun - 13:48:13 10° SSW 13:51:22 21° SSE 13:54:38 10° E daylight
22 Jun - 15:27:55 10° SW 15:32:03 57° NW 15:36:25 10° NNE daylight
23 Jun - 07:05:10 10° NW 07:08:59 80° SW 07:12:47 10° SE daylight
23 Jun - 08:48:13 10° SW 08:49:56 13° SSW 08:51:39 10° S daylight
23 Jun - 13:52:11 10° SSW 13:55:52 31° SE 13:59:44 10° E daylight
23 Jun - 15:32:33 10° WSW 15:36:19 31° NW 15:40:15 10° NNE daylight
24 Jun - 05:30:37 10° N 05:33:11 17° NE 05:35:44 10° E visible
24 Jun - 07:09:43 10° WNW 07:13:21 42° SW 07:17:00 10° SE daylight
24 Jun - 12:18:10 10° S 12:19:07 11° SSE 12:20:05 10° SE daylight
24 Jun - 13:56:17 10° SW 14:00:17 52° SE 14:04:30 10° ENE daylight
24 Jun - 15:37:39 10° W 15:40:31 18° NW 15:43:29 10° N daylight
25 Jun - 05:33:55 10° NNW 05:37:23 32° NE 05:40:49 10° ESE visible
25 Jun - 07:14:35 10° W 07:17:49 25° SW 07:21:03 10° SSE daylight
25 Jun - 12:21:24 10° S 12:23:47 15° SSE 12:26:12 10° ESE daylight
25 Jun - 14:00:33 10° SW 14:04:38 89° WNW 14:08:58 10° NE daylight
26 Jun - 05:37:49 10° NW 05:41:39 63° NE 05:45:25 10° SE visible
26 Jun - 07:19:50 10° WSW 07:22:21 17° SSW 07:24:54 10° SSE daylight
26 Jun - 12:25:11 10° SSW 12:28:20 22° SSE 12:31:37 10° E daylight
26 Jun - 14:05:00 10° WSW 14:08:57 48° NW 14:13:05 10° NNE daylight
27 Jun - 04:04:58 10° NE 04:05:57 11° NE 04:06:54 10° ENE visible
27 Jun - 05:42:06 10° NW 05:45:58 68° SW 05:49:46 10° SE visible
27 Jun - 07:25:38 10° SW 07:26:59 11° SSW 07:28:20 10° S daylight
27 Jun - 12:29:10 10° SSW 12:32:49 34° SE 12:36:39 10° ENE daylight
27 Jun - 14:09:44 10° WSW 14:13:12 26° NW 14:16:47 10° N daylight
28 Jun - 04:07:08 10° N 04:10:07 20° NE 04:13:01 10° E visible
28 Jun - 05:46:44 10° WNW 05:50:22 37° SW 05:53:57 10° SSE visible
28 Jun - 10:55:00 10° S 10:56:09 11° SSE 10:57:19 10° SE daylight
28 Jun - 12:33:18 10° SW 12:37:14 58° SE 12:41:21 10° ENE daylight
28 Jun - 14:15:05 10° W 14:17:23 15° NW 14:19:46 10° NNW daylight
29 Jun - 04:10:38 10° NNW 04:14:20 38° NE 04:17:56 10° ESE visible
29 Jun - 05:51:40 10° W 05:54:50 23° SW 05:57:56 10° SSE visible
29 Jun - 10:58:20 10° S 11:00:47 16° SSE 11:03:17 10° ESE daylight
29 Jun - 12:37:35 10° SW 12:41:34 77° NW 12:45:44 10° NE daylight
30 Jun - 04:14:38 10° NW 04:18:37 74° NE 04:22:27 10° SE visible
30 Jun - 05:57:00 10° WSW 05:59:23 15° SSW 06:01:44 10° S visible
30 Jun - 11:02:08 10° SSW 11:05:20 23° SE 11:08:36 10° E daylight
30 Jun - 12:42:06 10° WSW 12:45:51 40° NW 12:49:46 10° NNE daylight
01 Jul - 02:40:52 10° NNE 02:42:50 13° NE 02:44:46 10° E night (unlit)
01 Jul - 04:19:00 10° WNW 04:22:56 59° SW 04:26:46 10° SE visible
01 Jul - 06:03:04 10° SW 06:04:02 11° SSW 06:04:58 10° S visible
01 Jul - 11:06:09 10° SSW 11:09:48 37° SE 11:13:34 10° ENE daylight
01 Jul - 12:46:57 10° WSW 12:50:05 22° NW 12:53:19 10° N daylight
